This is the latest recevied weather packets stored in our database for station/object WP3XM. If no packets are shown the sender has not sent any weather packets the latest 10 day(s).
| Time | Temp. | Humidity | Pressure | Rain* | Wind** | Luminosity | Snow |
|---|---|---|---|---|---|---|---|
| 1777415934 | 24.44° C | 94% | 1017 hPa | 0 mm | - | 3 W/m² | - |
| 1777415630 | 24.44° C | 94% | 1016.7 hPa | 0 mm | - | 5 W/m² | - |
| 1777415326 | 24.44° C | 94% | 1016.6 hPa | 0 mm | - | 7 W/m² | - |
| 1777415021 | 24.44° C | 94% | 1016.7 hPa | 0 mm | - | 10 W/m² | - |
| 1777414720 | 24.44° C | 95% | 1016.7 hPa | 0 mm | - | 14 W/m² | - |
| 1777414417 | 24.44° C | 94% | 1016.7 hPa | 0 mm | - | 15 W/m² | - |
| 1777414116 | 25° C | 94% | 1016.7 hPa | 0 mm | - | 18 W/m² | - |
| 1777413811 | 25° C | 94% | 1016.7 hPa | 0 mm | - | 24 W/m² | - |
| 1777413507 | 25° C | 94% | 1016.6 hPa | 0 mm | - | 30 W/m² | - |
| 1777413204 | 25° C | 94% | 1016.7 hPa | 1.27 mm | - | 35 W/m² | - |
| 1777412899 | 25° C | 93% | 1016.8 hPa | 1.27 mm | - | 32 W/m² | - |
| 1777412599 | 25.56° C | 93% | 1016.9 hPa | 0 mm | - | 18 W/m² | - |
| 1777412296 | 25.56° C | 93% | 1016.9 hPa | 1.78 mm | - | 13 W/m² | - |
| 1777411992 | 25.56° C | 93% | 1016.8 hPa | 3.05 mm | - | 28 W/m² | - |
| 1777411690 | 26.11° C | 92% | 1016.8 hPa | 4.32 mm | - | 26 W/m² | - |
| 1777411385 | 26.11° C | 91% | 1016.8 hPa | 4.83 mm | - | 26 W/m² | - |
| 1777411085 | 26.11° C | 91% | 1016.8 hPa | 6.6 mm | - | 35 W/m² | - |
| 1777410780 | 26.11° C | 90% | 1016.8 hPa | 7.11 mm | - | 42 W/m² | - |
| 1777410479 | 26.67° C | 90% | 1016.8 hPa | 6.1 mm | - | 45 W/m² | - |
| 1777410178 | 26.67° C | 90% | 1016.8 hPa | 1.27 mm | - | 47 W/m² | - |
| 1777409874 | 26.67° C | 90% | 1016.7 hPa | 0 mm | - | 55 W/m² | - |
| 1777409570 | 26.67° C | 90% | 1016.7 hPa | 0 mm | - | 51 W/m² | - |
| 1777409265 | 26.67° C | 89% | 1016.3 hPa | 1.78 mm | - | 63 W/m² | - |
| 1777408962 | 26.67° C | 89% | 1016.6 hPa | 4.83 mm | - | 58 W/m² | - |
| 1777408658 | 26.67° C | 89% | 1016.4 hPa | 4.32 mm | - | 57 W/m² | - |
* Rain latest hour (hover to see other rain measurements)
** Current wind speed in m/s (hover to see current wind gust speed)